Regional Weather Roundup
Issued by NWS

Home | Current Version | Previous Version | Graphics & Text | Print | Product List | Glossary On
Versions: 1 2 3 4 5 6 7 8 9 10 11 12 13 14 15 16 17 18 19 20 21 22 23 24 25 26 27
000
ASUS45 KBOU 272007
RWRCO

WEATHER ROUNDUP FOR COLORADO
NATIONAL WEATHER SERVICE DENVER/BOULDER CO
200 PM MDT SAT MAY 27 2017

NOTE: "FAIR" INDICATES FEW OR NO CLOUDS BELOW 12000 FEET WITH NO
SIGNIFICANT WEATHER AND/OR OBSTRUCTIONS TO VISIBILITY.

COZ001>005-013-030-031-272100-
...NORTHWEST COLORADO...

CITY           SKY/WX    TMP DP  RH WIND       PRES   REMARKS
CRAIG          FAIR      58  34  40 VRB6      30.20S
HAYDEN         CLOUDY    50  36  57 S10G17    30.21S
MEEKER         FAIR      59  36  42 N9        30.21R
RABBIT EARS PA NOT AVBL
STEAMBOAT SPGS NOT AVBL
WALDEN         NOT AVBL
$$

COZ006>008-011-272100-
...WEST CENTRAL VALLEYS...

CITY           SKY/WX    TMP DP  RH WIND       PRES   REMARKS
GRAND JUNCTION FAIR      71  28  20 W15       30.09F
MONTROSE       FAIR      67  31  26 W12G17    30.13F
EAGLE          PTSUNNY   52  39  62 E16       30.21R
RIFLE          FAIR      64  35  34 W12       30.15F
DELTA          FAIR      73  23  15 NW13G23   30.10S
NUCLA          FAIR      70  21  16 NW10G16   30.15S
$$

COZ017>023-064>068-272100-
...SOUTHWEST COLORADO...

CITY           SKY/WX    TMP DP  RH WIND       PRES   REMARKS
DURANGO        FAIR      71  22  15 W26G36    30.11S
CORTEZ         FAIR      71  26  18 W10       30.11F
PAGOSA SPRINGS CLOUDY    62  22  21 W9G22     30.16F THUNDER
TELLURIDE      FAIR      56  15  20 SW9G21    30.26F
WOLF CREEK PAS NOT AVBL
$$

COZ009-010-012-014-032>034-037-058>063-272100-
...CENTRAL COLORADO...

CITY           SKY/WX    TMP DP  RH WIND       PRES   REMARKS
ASPEN          FAIR      48  40  73 S7        30.20F
BUENA VISTA    FAIR      60  21  23 SW18G29   30.15S
COPPER MTN     NOT AVBL
BERTHOUD PASS  NOT AVBL
COTTONWOOD PAS NOT AVBL
GUNNISON       FAIR      60  26  27 W14G29    30.15F
KREMMLING      NOT AVBL
LEADVILLE      CLOUDY    40  28  62 N17G24    30.26R
SALIDA         FAIR      63  22  20 W9G31     30.19S
SUNLIGHT       NOT AVBL
WILKERSON PASS NOT AVBL
$$

COZ069>075-272100-
...SAN LUIS VALLEY/SANGRE DE CRISTO MOUNTAINS...

CITY           SKY/WX    TMP DP  RH WIND       PRES   REMARKS
ALAMOSA        FAIR      72  18  13 W23G30    30.07S
DEL NORTE      NOT AVBL
LA VETA PASS   NOT AVBL
SAGUACHE       NOT AVBL
$$

COZ035-036-038>040-272100-
...NORTHERN COLORADO FRONT RANGE...

CITY           SKY/WX    TMP DP  RH WIND       PRES   REMARKS
DENVER INTL AP RAIN      47  43  86 W9        30.17R FOG
DMNS CITY PARK   N/A     46  44  93 E9        30.18S
AURORA         RAIN      46  44  95 W12       30.20R
FRONT RANGE AP RAIN      55  45  67 N12G23    30.18R
ERIE MUNI ARPT NOT AVBL
BOULDER MUN AP NOT AVBL
CENTENNIAL     TSTM      45  44  97 N17G29    30.20R
BROOMFIELD     LGT RAIN  46  45  93 S3        30.18S
FORT COLLINS   CLOUDY    59  38  45 N10       30.12F
LONGMONT       NOT AVBL
$$

COZ041-046-047-076>085-087-088-272100-
...PIKES PEAK/PALMER DIVIDE AND SOUTHERN FOOTHILLS...

CITY           SKY/WX    TMP DP  RH WIND       PRES   REMARKS
COLO. SPRINGS  TSTM      51  44  77 N10       30.13R
A. F. ACADEMY  TSTM      48  41  76 NW5       30.16R
SCHRIEVER AFB  LGT RAIN  51  45  79 N20       30.11F
CHEYENNE MTN   PTSUNNY   46  43  87 N9        30.09  THUNDER
ELLICOTT       TSTM     N/A N/A N/A NE16G24   30.09F
FALCON         PTSUNNY   47  42  83 N8        30.15S
FORT CARSON    TSTM      54  43  66 N12       30.10S
LIMON          LGT RAIN  52  43  71 NW14      30.12R
MONUMENT HILL  NOT AVBL
CANON CITY     NOT AVBL
WALSENBURG     FAIR      68  48  49 NE8G17    30.05F
TRINIDAD       FAIR      68  45  43 E10G18    30.04F
$$

COZ042>045-048>051-090-091-272100-
...NORTHEAST COLORADO...

CITY           SKY/WX    TMP DP  RH WIND       PRES   REMARKS
GREELEY ARPT   PTSUNNY   59  40  49 N12       30.12R
AKRON          CLOUDY    56  45  66 N13       30.08F
BURLINGTON     CLOUDY    62  48  60 N18G26    30.04R
WRAY           CLOUDY    64  45  48 N15G21    30.05S
YUMA           NOT AVBL
STERLING       NOT AVBL
HOLYOKE        NOT AVBL
FORT MORGAN    CLOUDY    60  39  46 NW6       30.10R
$$

COZ086-089-092>099-272100-
...SOUTHEAST COLORADO...

CITY           SKY/WX    TMP DP  RH WIND       PRES   REMARKS
PUEBLO         LGT RAIN  64  47  53 S9        30.05R
LA JUNTA       PTSUNNY   72  48  42 NE13      30.00F
LAMAR          PTSUNNY   72  48  42 E7        29.98F
SPRINGFIELD      N/A     71  51  49 E6        30.00F
$$




USA.gov is the U.S. government's official web portal to all federal, state and local government web resources and services.